Location: ???? ????
(41.4149°N, 22.8816°E)
Time: 13:24:11
(UTC+00:00)

Cosmos 1763 Rocket - Pass Details

Date: 14 July 2020
Orbit: 732 x 780 km, 74.0° (Epoch: 03 August)

Event Time Altitude Azimuth Distance (km) Brightness Sun altitude
Rises 02:25:03 0° 331° (NNW) 3,245 6.9 -7.4°
Reaches altitude 10° 02:27:36 10° 322° (NW) 2,321 6.0 -7.0°
Maximum altitude 02:32:18 34° 259° (W) 1,258 4.2 -6.3°
Drops below altitude 10° 02:37:02 10° 196° (SSW) 2,323 5.5 -5.6°
Sets 02:39:35 0° 187° (S) 3,248 6.3 -5.2°
